Location: Bonaustraße
(48.4603°N, 11.9280°E)
Time: 20:40:55
(UTC+02:00)

AO-92 - Pass Details

Date: 30 July 2021
Orbit: 484 x 494 km, 97.4° (Epoch: 16 September)

Event Time Altitude Azimuth Distance (km) Brightness Sun altitude
Exits shadow 22:01:10 12° 105° (ESE) 1,574 ? -10.1°
Maximum altitude 22:03:20 18° 64° (ENE) 1,244 ? -10.3°
Drops below altitude 10° 22:05:52 10° 20° (NNE) 1,677 ? -10.6°
Sets 22:08:23 0° 1° (N) 2,564 ? -10.9°
